Regional Weather Roundup
Issued by NWS Kansas City/Pleasant Hill, MO

Home | Current Version | Previous Version | Graphics & Text | Print | Product List | Glossary Off
Versions: 1 2 3 4 5 6 7 8 9 10 11 12 13 14 15 16 17 18 19 20 21 22 23 24 25 26 27 28 29 30 31 32 33 34 35 36 37 38 39 40 41 42 43 44 45 46 47 48 49 50

000
ASUS43 KEAX 031610
RWREAX

WEATHER ROUNDUP FOR EASTERN KANSAS AND NORTHWEST MISSOURI
NATIONAL WEATHER SERVICE KANSAS CITY/PLEASANT HILL MO
1000 AM CST TUE MAR 03 2015

KSZ040-057-103>105-MOZ028-029-037-043-031700-
...KANSAS CITY METROPOLITAN AREA...

CITY           SKY/WX    TMP DP  RH WIND       PRES   REMARKS
K.C. INTL      CLOUDY    42  39  89 SW16G26   29.74R WCI  34
K.C. DOWNTOWN  CLOUDY    43  38  82 SW12G22   29.74R
LEES SUMMIT    CLOUDY    41  38  89 SW17G31   29.75R WCI  32
OLATHE - IXD   CLOUDY    41  39  93 SW21G28   29.76R WCI  32
OLATHE - OJC   CLOUDY    41  39  93 SW14G22   29.74R FOG     WCI  33
LAWRENCE       CLOUDY    44  37  76 SW13      29.76R

$$

MOZ001>008-011>017-020>025-030>033-038>040-044>046-053-054-031700-
...NORTHERN AND CENTRAL MISSOURI...

CITY           SKY/WX    TMP DP  RH WIND       PRES   REMARKS
ST. JOSEPH     CLOUDY    41  38  89 SW9       29.74R FOG
MOSBY            N/A     41  39  93 SW9G18    29.76R
WARRENSBURG    CLOUDY    37  36  93 SW16G23   29.77R FOG     WCI  28
WHITEMAN AFB   CLOUDY    39  38  97 SW21G30   29.74R FOG     WCI  29
CLINTON        CLOUDY    43  39  87 SW16G26   29.79R FOG
SEDALIA        CLOUDY    41  38  89 SW21G33   29.77R FOG     WCI  32
WARSAW         NOT AVBL
MARSHALL       FOG       39  39 100 SW8       29.75  VSB 1   WCI  34
CHILLICOTHE      N/A     38  36  92 SW5       29.74R WCI  34
KIRKSVILLE     FOG       35  35 100 SW9       29.73R VSB 3/4 WCI  28

$$

MOZ041-047>049-056>058-063>065-088>090-097-031700-
...EASTERN AND SOUTHERN MISSOURI...

CITY           SKY/WX    TMP DP  RH WIND       PRES   REMARKS
ST. LOUIS INTL CLOUDY    41  37  86 S7        29.79F FOG
SPIRIT OF STL  CLOUDY    44  40  85 SW9       29.77F
COLUMBIA       CLOUDY    38  37  97 S10       29.76S FOG     WCI  31
JEFFERSON CITY CLOUDY    42  38  85 CALM      29.78F
MEXICO         CLOUDY   N/A N/A N/A SW17      29.75S FOG
ROLLA          CLOUDY    42  40  92 SW17G26   29.78S WCI  34
OSAGE BEACH    CLOUDY    48  43  81 SW10G28   29.79S
SPRINGFIELD    CLOUDY    44  42  93 SW20      29.83F
BRANSON        CLOUDY    46  46 100 SW9G18    29.90F FOG
NEVADA         CLOUDY    41  39  93 SW21G30   29.82R WCI  32
JOPLIN         CLOUDY    45  42  89 SW22G29   29.84F
WEST PLAINS    FOG       38  38 100 S6        29.91F VSB 1/4 WCI  33

$$

IAZ060-094-KSZ022-034>040-054-083-096-NEZ052-066-093-031700-
...KANSAS...SOUTHEAST NEBRASKA AND IOWA...

CITY           SKY/WX    TMP DP  RH WIND       PRES   REMARKS
TOPEKA         PTSUNNY   46  37  71 SW12G22   29.77R
MANHATTAN      CLOUDY    46  36  68 W14G20    29.76R
EMPORIA        CLOUDY    43  37  79 SW18G24   29.77R WCI  35
CHANUTE        CLOUDY    43  42  97 SW18G26   29.82S WCI  35
WICHITA        CLOUDY    41  36  82 SW10      29.80R WCI  35
OMAHA          CLOUDY    33  30  88 NW17      29.75R FOG     WCI  22
LINCOLN        CLOUDY    35  28  75 NW20G30   29.79R HAZE    WCI  24
FALLS CITY     CLOUDY    41  35  79 W15       29.74R WCI  33
LAMONI         FOG       33  33 100 SW9       29.69R VSB 1   WCI  25
DES MOINES     DRZL/FOG  34  32  92 W8        29.69S VSB 1   WCI  27

$$



USA.gov is the U.S. government's official web portal to all federal, state and local government web resources and services.